CAPE
0 2 0 0 0 0 0 0 0 0 1 27 292 589 459 659 318 412 613 631 263 175 78 87 130 146 158 139 130 80 91 60 49 68 100 85 149 211 313 476 672 883 959 897
0 9 26 9 36 8 1 21 96 14 45 90 481 448 349 201 298 311 340 465 548 374 253 224 335 181 178 144 125 111 112 78 29 47 78 71 74 67 117 216 309 349 462 680
0 0 22 25 14 35 18 91 128 92 69 214 294 331 316 148 85 149 227 169 173 354 398 359 280 222 138 110 94 69 25 43 41 37 71 55 50 41 63 16 76 68 112 280
17 3 8 2 0 73 235 259 185 136 127 196 207 292 182 192 57 59 117 209 262 465 357 209 166 173 119 94 118 36 24 12 35 24 40 71 48 23 31 44 37 52 59 50
4 8 8 0 0 68 74 148 328 216 143 124 186 165 148 79 57 121 195 220 453 285 189 260 328 201 213 293 127 91 29 47 36 40 21 39 20 29 14 2 9 28 48 121
9 3 1 0 0 47 40 91 194 243 248 246 194 123 51 53 35 75 100 409 377 256 171 134 172 96 89 37 52 27 42 17 149 37 3 0 3 0 0 0 2 4 45 57
26 13 1 1 6 4 68 24 205 225 258 193 148 119 28 32 122 166 230 227 168 200 72 28 37 47 36 15 4 1 1 0 0 0 0 10 11 21 22 13 8 17 26 42
0 0 0 0 1 13 8 26 207 193 185 204 109 6 38 80 167 96 63 31 29 22 5 0 0 0 0 0 0 0 1 2 0 0 0 14 10 16 24 21 12 4 16 10
3 1 2 13 32 0 0 52 62 211 182 141 90 23 4 68 1 0 0 0 0 0 0 0 0 0 0 0 0 0 0 0 0 0 0 0 0 0 0 0 0 0 0 0
10 8 12 24 39 41 60 53 141 163 180 178 136 44 0 0 1 0 0 0 0 0 0 0 0 0 0 0 0 0 0 0 0 0 0 0 0 0 0 0 0 0 0 0
0 0 0 0 1 23 53 116 120 119 152 196 120 33 30 0 0 16 10 13 0 0 0 0 0 0 0 0 0 0 0 0 0 0 0 0 0 0 0 0 0 0 0 0
0 0 0 0 0 0 0 20 74 88 55 45 35 38 34 28 24 15 19 18 0 0 0 0 0 0 0 0 0 0 0 0 0 0 0 0 0 0 0 0 0 0 0 0
0 0 0 0 0 0 0 0 0 0 6 37 40 34 47 22 17 15 0 0 0 0 0 0 0 0 0 0 0 0 0 0 0 0 0 0 0 0 0 0 0 0 0 0
0 0 0 0 0 0 0 0 0 0 0 4 0 0 0 0 0 0 0 0 0 0 0 0 0 0 0 0 0 0 0 0 0 0 0 0 0 0 0 0 0 0 0 0
0 0 0 0 0 0 0 0 0 0 0 0 0 0 0 0 0 0 0 0 0 0 0 0 0 0 0 0 0 0 0 0 0 0 0 0 0 0 0 0 0 0 0 0
0 0 0 0 0 0 0 0 0 3 5 6 4 0 0 2 0 0 0 0 0 0 0 0 0 0 0 0 0 0 0 0 0 0 0 0 0 0 0 0 0 0 0 0
0 0 0 0 0 0 0 0 0 0 2 3 12 20 14 16 17 5 0 0 0 0 0 0 0 0 0 0 0 0 0 0 0 0 0 0 0 0 0 0 0 0 0 0
0 0 0 0 0 0 0 0 0 0 0 0 5 7 14 16 14 9 1 0 0 0 0 0 0 0 0 0 0 0 0 0 0 0 0 0 0 0 0 0 0 0 0 0
0 0 1 0 0 0 0 0 0 0 0 0 0 11 27 18 24 9 23 10 13 2 4 1 1 0 0 0 0 0 0 0 0 0 0 0 0 0 0 0 0 0 0 0
0 0 0 7 8 6 9 10 9 1 0 0 0 0 3 36 49 48 24 47 0 10 3 6 0 0 0 0 0 0 0 0 0 0 0 0 0 0 0 0 0 0 0 0
0 0 0 0 0 6 12 13 3 5 0 0 0 0 0 0 17 35 28 21 16 21 7 10 9 4 0 0 0 0 0 0 0 0 0 0 0 0 0 0 0 0 0 0
0 0 0 0 0 0 0 0 0 0 0 0 0 0 0 13 38 40 41 43 34 36 31 21 3 9 0 0 0 0 0 0 0 0 0 0 0 0 0 0 0 0 0 0
0 0 0 0 0 0 0 0 0 0 0 0 0 0 0 0 2 4 5 35 57 76 68 52 17 5 0 8 9 0 0 0 0 0 0 0 0 0 0 0 0 0 0 0
0 0 0 0 0 0 0 0 0 0 0 0 0 0 0 0 0 0 0 0 0 11 23 15 31 34 3 0 32 6 3 0 0 0 0 0 0 0 0 0 0 0 0 0
0 0 0 0 0 0 0 0 0 0 0 0 0 0 0 1 19 24 20 6 0 0 1 6 13 10 22 21 0 0 0 0 0 4 2 0 1 0 0 0 0 7 1 0
0 0 0 0 0 0 0 0 0 0 0 0 0 0 0 0 0 0 5 18 26 10 2 32 42 67 44 35 26 0 0 0 8 42 40 37 17 0 0 0 0 6 13 4
0 0 0 0 0 0 0 0 0 0 0 0 0 0 0 0 0 0 0 1 3 0 21 79 91 64 45 21 6 5 1 0 0 38 19 31 32 2 0 0 0 0 4 0
CIN
-0 -30 -0 -0 -0 -0 -0 -0 -0 -0 -49 -305 -262 -168 -170 -113 -144 -67 -22 -15 -71 -92 -96 -68 -42 -32 -18 -32 -18 -16 -18 -0 -8 -38 -35 -63 -74 -86 -71 -62 -49 -44 -37 -23
-0 -43 -20 -21 -3 -199 -4 -346 -264 -384 -321 -383 -212 -199 -197 -228 -183 -116 -78 -47 -27 -42 -47 -34 -4 -18 -32 -56 -1 -6 -9 -0 -0 -39 -36 -21 -38 -35 -66 -57 -40 -36 -46 -46
-0 -0 -31 -13 -17 -58 -153 -152 -230 -196 -220 -351 -258 -197 -129 -95 -134 -194 -117 -138 -140 -66 -32 -20 -26 -25 -49 -36 -13 -21 -27 -3 -5 -72 -70 -36 -58 -55 -32 -40 -47 -45 -33 -44
-65 -24 -9 -6 -1 -105 -132 -177 -217 -227 -328 -288 -250 -185 -146 -154 -209 -238 -208 -132 -103 -39 -53 -82 -58 -54 -41 -44 -22 -48 -27 -22 -18 -19 -28 -80 -108 -93 -70 -27 -19 -28 -39 -39
-48 -13 -15 -0 -1 -80 -102 -97 -130 -222 -267 -267 -208 -193 -193 -114 -233 -220 -184 -143 -57 -70 -66 -52 -25 -25 -14 -1 -10 -13 -40 -24 -18 -43 -65 -48 -30 -8 -15 -53 -16 -3 -17 -46
-30 -38 -7 -0 -0 -36 -89 -104 -135 -117 -168 -179 -152 -202 -86 -226 -194 -149 -174 -48 -45 -53 -65 -62 -41 -51 -41 -56 -46 -42 -36 -1 -0 -30 -149 -0 -8 -0 -0 -10 -43 -81 -37 -53
-41 -18 -2 -1 -37 -40 -27 -89 -120 -129 -115 -111 -134 -102 -126 -154 -85 -66 -49 -34 -66 -39 -40 -43 -69 -71 -77 -92 -27 -0 -1 -0 -0 -0 -0 -21 -32 -18 -16 -41 -7 -4 -7 -5
-0 -0 -0 -0 -1 -8 -9 -67 -50 -72 -74 -80 -53 -39 -65 -52 -21 -47 -61 -97 -85 -75 -29 -0 -0 -0 -0 -0 -0 -0 -39 -41 -0 -0 -0 -1 -7 -10 -8 -13 -26 -88 -52 -40
-44 -19 -52 -73 -52 -0 -0 -37 -80 -55 -53 -39 -19 -1 -29 -10 -4 -0 -0 -0 -0 -0 -0 -0 -0 -0 -0 -0 -0 -0 -0 -0 -0 -0 -0 -0 -0 -0 -0 -0 -0 -0 -0 -0
-49 -55 -49 -45 -110 -79 -58 -67 -61 -51 -37 -23 -12 -0 -0 -0 -1 -0 -0 -0 -0 -0 -0 -0 -0 -0 -0 -0 -0 -0 -0 -0 -0 -0 -0 -0 -0 -0 -0 -0 -0 -0 -0 -0
-1 -0 -0 -0 -8 -111 -64 -52 -57 -59 -29 -8 -4 -0 -0 -0 -0 -1 -0 -1 -0 -0 -0 -0 -0 -0 -0 -0 -0 -0 -0 -0 -0 -0 -0 -0 -0 -0 -0 -0 -0 -0 -0 -0
-0 -0 -0 -0 -0 -0 -0 -62 -47 -32 -35 -12 -6 -0 -5 -12 -1 -0 -1 -1 -0 -0 -0 -0 -0 -0 -0 -0 -0 -0 -0 -0 -0 -0 -0 -0 -0 -0 -0 -0 -0 -0 -0 -0
-0 -0 -0 -0 -0 -0 -0 -0 -0 -1 -43 -22 -11 -12 -17 -0 -1 -3 -1 -0 -0 -0 -0 -0 -0 -0 -0 -0 -0 -0 -0 -0 -0 -0 -0 -0 -0 -0 -0 -0 -0 -0 -0 -0
-0 -0 -0 -0 -0 -0 -0 -0 -0 -0 -0 -19 -0 -0 -0 -0 -0 -0 -0 -0 -0 -0 -0 -0 -0 -0 -0 -0 -0 -0 -0 -0 -0 -0 -0 -0 -0 -0 -0 -0 -0 -0 -0 -0
-0 -0 -0 -0 -0 -0 -0 -0 -0 -0 -0 -0 -0 -0 -0 -0 -0 -0 -0 -0 -0 -0 -0 -0 -0 -0 -0 -0 -0 -0 -0 -0 -0 -0 -0 -0 -0 -0 -0 -0 -0 -0 -0 -0
-0 -0 -0 -0 -0 -0 -0 -0 -0 -0 -1 -1 -3 -1 -0 -21 -0 -0 -0 -0 -0 -0 -0 -0 -0 -0 -0 -0 -0 -0 -0 -0 -0 -0 -0 -0 -0 -0 -0 -0 -0 -0 -0 -0
-0 -0 -0 -0 -0 -0 -0 -0 -0 -0 -1 -2 -2 -0 -0 -17 -21 -20 -0 -0 -0 -0 -0 -0 -0 -0 -0 -0 -0 -0 -0 -0 -0 -0 -0 -0 -0 -0 -0 -0 -0 -0 -0 -0
-0 -0 -0 -0 -0 -0 -0 -0 -0 -0 -0 -0 -3 -1 -1 -1 -18 -21 -1 -0 -0 -0 -0 -0 -0 -0 -0 -0 -0 -0 -0 -0 -0 -0 -0 -0 -0 -0 -0 -0 -0 -0 -0 -0
-0 -0 -4 -0 -0 -0 -0 -0 -0 -0 -0 -0 -1 -8 -1 -1 -1 -13 -1 -0 -0 -4 -1 -0 -0 -0 -0 -0 -0 -0 -0 -0 -0 -0 -0 -0 -0 -0 -0 -0 -0 -0 -0 -0
-0 -0 -0 -6 -3 -3 -7 -10 -7 -6 -0 -0 -0 -0 -14 -5 -1 -1 -0 -1 -0 -3 -1 -0 -0 -0 -0 -0 -0 -0 -0 -0 -0 -0 -0 -0 -0 -0 -0 -0 -0 -0 -0 -0
-0 -0 -0 -0 -0 -7 -4 -2 -5 -17 -0 -0 -0 -0 -0 -1 -1 -3 -1 -0 -3 -1 -3 -0 -0 -0 -0 -0 -0 -0 -0 -0 -0 -0 -0 -0 -0 -0 -0 -0 -0 -0 -0 -0
-0 -0 -0 -0 -0 -0 -0 -0 -0 -0 -0 -0 -0 -0 -0 -24 -15 -9 -9 -7 -9 -6 -4 -11 -0 -0 -0 -0 -0 -0 -0 -0 -0 -0 -0 -0 -0 -0 -0 -0 -0 -0 -0 -0
-0 -0 -0 -0 -0 -0 -0 -0 -0 -0 -0 -0 -0 -0 -0 -0 -9 -6 -5 -17 -8 -0 -1 -0 -0 -0 -0 -0 -0 -0 -0 -0 -0 -0 -0 -0 -0 -0 -0 -0 -0 -0 -0 -0
-0 -0 -0 -0 -0 -0 -0 -0 -0 -0 -0 -0 -0 -0 -0 -0 -0 -0 -0 -0 -0 -9 -9 -24 -16 -4 -6 -0 -0 -0 -0 -0 -0 -0 -0 -0 -0 -0 -0 -0 -0 -0 -0 -0
-0 -0 -0 -0 -0 -0 -0 -0 -0 -0 -0 -0 -0 -0 -0 -2 -0 -0 -0 -1 -0 -0 -0 -5 -27 -32 -15 -2 -0 -0 -0 -0 -0 -1 -1 -0 -3 -0 -0 -0 -0 -6 -1 -0
-0 -0 -0 -0 -0 -0 -0 -0 -0 -0 -0 -0 -0 -0 -0 -0 -0 -0 -0 -0 -7 -0 -0 -5 -11 -10 -15 -5 -2 -0 -0 -0 -0 -2 -4 -3 -15 -0 -0 -0 -0 -11 -9 -15
-0 -0 -0 -0 -0 -0 -0 -0 -0 -0 -0 -0 -0 -0 -0 -0 -0 -0 -0 -0 -0 -0 -0 -0 -0 -0 -0 -0 -6 -0 -0 -0 -0 -0 -30 -5 -11 -16 -0 -0 -0 -0 -15 -2
Wind_Speed
nan nan nan nan nan nan nan nan nan nan nan nan 26 27 26 28 24 22 26 26 23 24 nan nan 25 24 17 30 33 nan nan nan nan nan 42 nan 42 40 39 37 32 27 23 22
nan nan nan nan nan nan nan nan nan nan nan nan 39 41 35 27 24 22 24 24 28 27 27 26 25 22 29 30 24 20 20 nan nan nan nan nan nan nan 43 41 40 37 35 31
nan nan nan nan nan nan nan nan 43 nan nan 46 48 45 41 35 nan 37 34 31 24 27 28 28 29 27 32 32 nan nan nan nan nan nan nan nan nan nan nan nan nan nan 40 39
nan nan nan nan nan nan 47 49 45 44 45 49 52 53 54 53 nan nan 41 39 36 35 36 36 35 37 40 nan 34 nan nan nan nan nan nan nan nan nan nan nan nan nan nan nan
nan nan nan nan nan nan nan 44 43 42 47 51 57 60 54 nan nan 48 43 40 36 39 41 39 39 37 40 37 33 nan nan nan nan nan nan nan nan nan nan nan nan nan nan 42
nan nan nan nan nan nan nan nan 41 39 41 48 46 41 nan nan nan nan 46 43 39 39 40 40 34 nan nan nan nan nan nan nan 21 nan nan nan nan nan nan nan nan nan nan nan
nan nan nan nan nan nan nan nan 47 46 42 47 46 43 nan nan 47 40 44 45 49 44 nan nan nan nan nan nan nan nan nan nan nan nan nan nan nan nan nan nan nan nan nan nan
nan nan nan nan nan nan nan nan 51 49 45 53 53 nan nan nan 44 nan nan nan nan nan nan nan nan nan nan nan nan nan nan nan nan nan nan nan nan nan nan nan nan nan nan nan
nan nan nan nan nan nan nan nan nan 45 36 41 nan nan nan nan nan nan nan nan nan nan nan nan nan nan nan nan nan nan nan nan nan nan nan nan nan nan nan nan nan nan nan nan
nan nan nan nan nan nan nan nan 46 48 46 39 41 nan nan nan nan nan nan nan nan nan nan nan nan nan nan nan nan nan nan nan nan nan nan nan nan nan nan nan nan nan nan nan
nan nan nan nan nan nan nan 41 46 44 45 44 35 nan nan nan nan nan nan nan nan nan nan nan nan nan nan nan nan nan nan nan nan nan nan nan nan nan nan nan nan nan nan nan
nan nan nan nan nan nan nan nan nan nan nan nan nan nan nan nan nan nan nan nan nan nan nan nan nan nan nan nan nan nan nan nan nan nan nan nan nan nan nan nan nan nan nan nan
nan nan nan nan nan nan nan nan nan nan nan nan nan nan nan nan nan nan nan nan nan nan nan nan nan nan nan nan nan nan nan nan nan nan nan nan nan nan nan nan nan nan nan nan
nan nan nan nan nan nan nan nan nan nan nan nan nan nan nan nan nan nan nan nan nan nan nan nan nan nan nan nan nan nan nan nan nan nan nan nan nan nan nan nan nan nan nan nan
nan nan nan nan nan nan nan nan nan nan nan nan nan nan nan nan nan nan nan nan nan nan nan nan nan nan nan nan nan nan nan nan nan nan nan nan nan nan nan nan nan nan nan nan
nan nan nan nan nan nan nan nan nan nan nan nan nan nan nan nan nan nan nan nan nan nan nan nan nan nan nan nan nan nan nan nan nan nan nan nan nan nan nan nan nan nan nan nan
nan nan nan nan nan nan nan nan nan nan nan nan nan nan nan nan nan nan nan nan nan nan nan nan nan nan nan nan nan nan nan nan nan nan nan nan nan nan nan nan nan nan nan nan
nan nan nan nan nan nan nan nan nan nan nan nan nan nan nan nan nan nan nan nan nan nan nan nan nan nan nan nan nan nan nan nan nan nan nan nan nan nan nan nan nan nan nan nan
nan nan nan nan nan nan nan nan nan nan nan nan nan nan nan nan nan nan nan nan nan nan nan nan nan nan nan nan nan nan nan nan nan nan nan nan nan nan nan nan nan nan nan nan
nan nan nan nan nan nan nan nan nan nan nan nan nan nan nan nan nan nan nan nan nan nan nan nan nan nan nan nan nan nan nan nan nan nan nan nan nan nan nan nan nan nan nan nan
nan nan nan nan nan nan nan nan nan nan nan nan nan nan nan nan nan nan nan nan nan nan nan nan nan nan nan nan nan nan nan nan nan nan nan nan nan nan nan nan nan nan nan nan
nan nan nan nan nan nan nan nan nan nan nan nan nan nan nan nan nan nan nan nan nan nan nan nan nan nan nan nan nan nan nan nan nan nan nan nan nan nan nan nan nan nan nan nan
nan nan nan nan nan nan nan nan nan nan nan nan nan nan nan nan nan nan nan nan nan nan nan nan nan nan nan nan nan nan nan nan nan nan nan nan nan nan nan nan nan nan nan nan
nan nan nan nan nan nan nan nan nan nan nan nan nan nan nan nan nan nan nan nan nan nan nan nan nan nan nan nan nan nan nan nan nan nan nan nan nan nan nan nan nan nan nan nan
nan nan nan nan nan nan nan nan nan nan nan nan nan nan nan nan nan nan nan nan nan nan nan nan nan nan nan nan nan nan nan nan nan nan nan nan nan nan nan nan nan nan nan nan
nan nan nan nan nan nan nan nan nan nan nan nan nan nan nan nan nan nan nan nan nan nan nan nan nan nan nan nan nan nan nan nan nan nan nan nan nan nan nan nan nan nan nan nan
nan nan nan nan nan nan nan nan nan nan nan nan nan nan nan nan nan nan nan nan nan nan nan nan nan nan nan nan nan nan nan nan nan nan nan nan nan nan nan nan nan nan nan nan
Wind_Direction
nan nan nan nan nan nan nan nan nan nan nan nan 244 246 241 240 256 267 256 250 253 261 nan nan 258 254 264 237 233 nan nan nan nan nan 235 nan 236 233 240 241 235 233 240 239
nan nan nan nan nan nan nan nan nan nan nan nan 243 238 248 253 264 276 279 268 245 257 256 262 260 243 234 251 231 244 262 nan nan nan nan nan nan nan 238 241 243 237 234 239
nan nan nan nan nan nan nan nan 239 nan nan 253 254 243 237 245 nan 261 271 272 256 261 253 244 247 254 253 252 nan nan nan nan nan nan nan nan nan nan nan nan nan nan 241 239
nan nan nan nan nan nan 219 226 234 238 252 252 251 246 243 240 nan nan 266 263 261 264 255 251 250 246 252 nan 252 nan nan nan nan nan nan nan nan nan nan nan nan nan nan nan
nan nan nan nan nan nan nan 216 233 250 259 255 255 251 248 nan nan 248 254 259 256 252 252 248 249 249 251 248 248 nan nan nan nan nan nan nan nan nan nan nan nan nan nan 244
nan nan nan nan nan nan nan nan 228 234 252 268 268 260 nan nan nan nan 244 246 253 253 251 251 248 nan nan nan nan nan nan nan 247 nan nan nan nan nan nan nan nan nan nan nan
nan nan nan nan nan nan nan nan 226 238 243 251 245 248 nan nan 250 245 247 249 248 248 nan nan nan nan nan nan nan nan nan nan nan nan nan nan nan nan nan nan nan nan nan nan
nan nan nan nan nan nan nan nan 233 239 240 242 248 nan nan nan 252 nan nan nan nan nan nan nan nan nan nan nan nan nan nan nan nan nan nan nan nan nan nan nan nan nan nan nan
nan nan nan nan nan nan nan nan nan 236 237 246 nan nan nan nan nan nan nan nan nan nan nan nan nan nan nan nan nan nan nan nan nan nan nan nan nan nan nan nan nan nan nan nan
nan nan nan nan nan nan nan nan 237 242 241 244 246 nan nan nan nan nan nan nan nan nan nan nan nan nan nan nan nan nan nan nan nan nan nan nan nan nan nan nan nan nan nan nan
nan nan nan nan nan nan nan 232 227 218 224 224 231 nan nan nan nan nan nan nan nan nan nan nan nan nan nan nan nan nan nan nan nan nan nan nan nan nan nan nan nan nan nan nan
nan nan nan nan nan nan nan nan nan nan nan nan nan nan nan nan nan nan nan nan nan nan nan nan nan nan nan nan nan nan nan nan nan nan nan nan nan nan nan nan nan nan nan nan
nan nan nan nan nan nan nan nan nan nan nan nan nan nan nan nan nan nan nan nan nan nan nan nan nan nan nan nan nan nan nan nan nan nan nan nan nan nan nan nan nan nan nan nan
nan nan nan nan nan nan nan nan nan nan nan nan nan nan nan nan nan nan nan nan nan nan nan nan nan nan nan nan nan nan nan nan nan nan nan nan nan nan nan nan nan nan nan nan
nan nan nan nan nan nan nan nan nan nan nan nan nan nan nan nan nan nan nan nan nan nan nan nan nan nan nan nan nan nan nan nan nan nan nan nan nan nan nan nan nan nan nan nan
nan nan nan nan nan nan nan nan nan nan nan nan nan nan nan nan nan nan nan nan nan nan nan nan nan nan nan nan nan nan nan nan nan nan nan nan nan nan nan nan nan nan nan nan
nan nan nan nan nan nan nan nan nan nan nan nan nan nan nan nan nan nan nan nan nan nan nan nan nan nan nan nan nan nan nan nan nan nan nan nan nan nan nan nan nan nan nan nan
nan nan nan nan nan nan nan nan nan nan nan nan nan nan nan nan nan nan nan nan nan nan nan nan nan nan nan nan nan nan nan nan nan nan nan nan nan nan nan nan nan nan nan nan
nan nan nan nan nan nan nan nan nan nan nan nan nan nan nan nan nan nan nan nan nan nan nan nan nan nan nan nan nan nan nan nan nan nan nan nan nan nan nan nan nan nan nan nan
nan nan nan nan nan nan nan nan nan nan nan nan nan nan nan nan nan nan nan nan nan nan nan nan nan nan nan nan nan nan nan nan nan nan nan nan nan nan nan nan nan nan nan nan
nan nan nan nan nan nan nan nan nan nan nan nan nan nan nan nan nan nan nan nan nan nan nan nan nan nan nan nan nan nan nan nan nan nan nan nan nan nan nan nan nan nan nan nan
nan nan nan nan nan nan nan nan nan nan nan nan nan nan nan nan nan nan nan nan nan nan nan nan nan nan nan nan nan nan nan nan nan nan nan nan nan nan nan nan nan nan nan nan
nan nan nan nan nan nan nan nan nan nan nan nan nan nan nan nan nan nan nan nan nan nan nan nan nan nan nan nan nan nan nan nan nan nan nan nan nan nan nan nan nan nan nan nan
nan nan nan nan nan nan nan nan nan nan nan nan nan nan nan nan nan nan nan nan nan nan nan nan nan nan nan nan nan nan nan nan nan nan nan nan nan nan nan nan nan nan nan nan
nan nan nan nan nan nan nan nan nan nan nan nan nan nan nan nan nan nan nan nan nan nan nan nan nan nan nan nan nan nan nan nan nan nan nan nan nan nan nan nan nan nan nan nan
nan nan nan nan nan nan nan nan nan nan nan nan nan nan nan nan nan nan nan nan nan nan nan nan nan nan nan nan nan nan nan nan nan nan nan nan nan nan nan nan nan nan nan nan
nan nan nan nan nan nan nan nan nan nan nan nan nan nan nan nan nan nan nan nan nan nan nan nan nan nan nan nan nan nan nan nan nan nan nan nan nan nan nan nan nan nan nan nan